Retour au catalogue

COSMOS 2269

ActifMilitairePO
NORAD 23000·PAYLOAD·🇷🇺 Russia

Lancé Feb 12, 1994 depuis Plesetsk Cosmodrome

Loading…

Prochains Passages (prochaines 24 heures)

TLE

FraisSource: Space-Track

Époque: Sep 14, 2026, 11:28 UTC

1 23000U 94011B   26257.47780538 -.00000001  00000-0 -63616-4 0  9993
2 23000  82.5624 264.0905 0006975 359.1721 167.5919 12.61944742500930

Suivez COSMOS 2269 en temps réel avec AllMySat

Download on the App Store